Αρχική σελίδα
METAR-TAF:

METAR-TAF

Αεροδρόμια :

Cape Peel West, Νούναβουτ, Καναδάς

γεωγραφικό πλάτος: 69-02N, γεωγραφικό μήκος: 107-49W, υψόμετρο: 165 μ

Παρών καιρός

Η αναφορά έγινε 15 λεπτά πριν, στις 06:07 UTC
Άνεμος 4 kt από Α/BA
Θερμοκρασία -25°C
Υγρασία 69%
Πίεση 1021 hPa
Λίγα νέφη σε ύψος 400 πόδια
Αρκετά νέφη σε ύψος 3000 πόδια
Νεφοσκεπής σε ύψος 4000 πόδια

METAR: CWPX 260607Z AUTO 06004KT ////SM //// FEW004 BKN030 OVC040 M25/M29 A3016

Χρόνος: 23:22 (06:22 UTC)


TAF: λείπει

Μετεωρολογικές αναφορές και προγνώσεις για περισσότερα από 4000 αεροδρόμια (δελτία METAR και TAF).

Οι διαθέσιμοι σταθμοί απεικονίζονται στο χάρτη με κίτρινες και κόκκινες κουκκίδες.

Μετακινήστε το ποντίκι πάνω από τις κουκκίδες για να δείτε το όνομα του σταθμού.

Στη συνέχεια, κάντε κλικ για να δείτε τις μετεωρολογικές αναφορές και τις προγνώσεις καιρού.

Για να αλλάξετε το χάρτη: κάντε κλικ στα πράσινα κουμπιά με τον μαύρο σταυρό για να ζουμάρετε, στο πράσινο κουμπί με την παύλα για να αφαιρέσετε το ζουμ ή στα πράσινα βέλη για να αντιπαραβάλλετε χάρτες.


METAR-TAF: